Regional Weather Roundup
Issued by NWS

Home | Current Version | Previous Version | Text Only | Print | Product List | Glossary Off
Versions: 1 2 3 4 5 6 7 8 9 10 11 12 13 14 15 16 17 18 19 20 21 22 23 24 25 26 27 28 29 30 31 32 33 34 35 36 37 38 39 40 41 42 43 44 45 46 47 48 49 50

000
ASUS43 KLSX 191257
RWRMO

WEATHER SUMMARY FOR MISSOURI
NATIONAL WEATHER SERVICE SPRINGFIELD MO
800 AM CDT TUE SEP 19 2017

NOTE: "FAIR" INDICATES FEW OR NO CLOUDS BELOW 12,000 FEET WITH NO
       SIGNIFICANT WEATHER AND/OR OBSTRUCTIONS TO VISIBILITY.
       CURRENT SKY AND/OR WEATHER CONDITIONS ARE NOT AVAILABLE FOR
       CHILLICOTHE AND FARMINGTON.

MOZ001>031-035>038-043-044-053-054-191400-
...NORTHERN AND WESTERN MISSOURI...

CITY           SKY/WX    TMP DP  RH WIND       PRES   REMARKS
KANSAS CTY INT CLOUDY    68  67  96 SE8       29.89R
LEE`S SUMMIT   CLOUDY    67  67 100 SE6       29.92R
ST JOSEPH      CLEAR     68  68 100 SE5       29.87S FOG
CHILLICOTHE      N/A     65  65 100 SE5       29.91F

$$
MOZ066>068-077>081-088>096-101>105-191400-
...SOUTHWEST MISSOURI...

CITY           SKY/WX    TMP DP  RH WIND       PRES   REMARKS
SPRINGFIELD    SUNNY     69  68  96 SE7       29.95R
JOPLIN         PTSUNNY   68  67  96 S5        29.93R
BRANSON        MOSUNNY   66  66 100 SE5       29.98R FOG

$$
MOZ032>034-039>042-045>050-055>058-069>072-191400-
...CENTRAL MISSOURI...

CITY           SKY/WX    TMP DP  RH WIND       PRES   REMARKS
COLUMBIA       NOT AVBL
JEFFERSON CITY FOG       64  63  96 SE3       29.94R VSB<1/4
ROLLA          SUNNY     66  66 100 S3        29.97R FOG
SEDALIA        MOSUNNY   67  67 100 S6        29.94S
WARRENSBURG    TSTM      64  63  94 CALM      29.91F
OSAGE BEACH    CLOUDY    64  64 100 CALM      29.96R FOG

$$
MOZ051-052-059>065-191400-
...EAST CENTRAL MISSOURI...

CITY           SKY/WX    TMP DP  RH WIND       PRES   REMARKS
ST LOUIS INTL  FOG       67  67 100 CALM      29.96R VSB 1/4

$$
MOZ072>076-082>087-097>100-106>115-191400-
...SOUTH CENTRAL AND SOUTHEAST MISSOURI...

CITY           SKY/WX    TMP DP  RH WIND       PRES   REMARKS
CAPE GIRARDEAU SUNNY     67  66  97 CALM      29.95S FOG
FARMINGTON     MOSUNNY   64  64 100 CALM      29.98R FOG
POPLAR BLUFF   SUNNY     69  68  96 CALM      29.95R
WEST PLAINS    FOG       66  66 100 S3        29.99R VSB<1/4

$$


USA.gov is the U.S. government's official web portal to all federal, state and local government web resources and services.